^^
Station Historical Data
 
Daily Summary for April 21, 2019 Units:  Metric    English   Both
« Previous Day
Next Day »
Daily Weekly Monthly Yearly Custom
  Current: High: Low: Average:
Temperature: -7.8 °C -17.8 °C -15 °C -12.7 °C
Dew Point: -21.5 °C -17.8 °C -24.8 °C -23.6 °C
Humidity: 18% Humidity% 18% 24%
Wind Speed: 11.9km/h 0km/h 0km/h 4km/h
Wind Gust: 5.6km/h 0km/h - -
WindWest - - NW
Pressure: 34567.7 hPa 0 hPa 34533.8 hPa -
Precipitation: 0 mm      
Historical Graphs
 
 
Tabular Data for April 21, 2019
Time Temperature Dew Point Pressure Wind Wind Speed Wind Gust Humidity Rainfall Rate (Hourly) solar Conditions
-17.8 °C -17.8 °C 0 hPa Calm     Humidity% 0 mm SoftwareType W/m2 Conditions
00:04 -11.8 °C -23.8 °C 34635.4 hPa Calm     21% 0 mm WeatherDisplay:10.37 W/m2 CLR
00:09 -11.9 °C -23.8 °C 34635.4 hPa Calm     21% 0 mm WeatherDisplay:10.37 W/m2 CLR
00:14 -11.9 °C -23.8 °C 34635.4 hPa Calm     21% 0 mm WeatherDisplay:10.37 W/m2 CLR
00:19 -12 °C -23.9 °C 34635.4 hPa Calm     21% 0 mm WeatherDisplay:10.37 W/m2 CLR
00:24 -12 °C -23.9 °C 34635.4 hPa Calm     21% 0 mm WeatherDisplay:10.37 W/m2 CLR
00:29 -11.9 °C -23.8 °C 34635.4 hPa Calm     21% 0 mm WeatherDisplay:10.37 W/m2 CLR
00:34 -11.9 °C -23.8 °C 34635.4 hPa Calm     21% 0 mm WeatherDisplay:10.37 W/m2 CLR
00:39 -11.9 °C -23.8 °C 34635.4 hPa WSW 6 km/h 3.7 km/h 21% 0 mm WeatherDisplay:10.37 W/m2 CLR
00:44 -11.9 °C -23.8 °C 34635.4 hPa NNW 6 km/h   21% 0 mm WeatherDisplay:10.37 W/m2 CLR
00:49 -12.3 °C -24.1 °C 34635.4 hPa NNW 6 km/h 5.1 km/h 21% 0 mm WeatherDisplay:10.37 W/m2 CLR
00:54 -12.5 °C -24.3 °C 34635.4 hPa NW 6 km/h 3.7 km/h 21% 0 mm WeatherDisplay:10.37 W/m2 CLR
00:59 -12.7 °C -24.5 °C 34635.4 hPa Calm     21% 0 mm WeatherDisplay:10.37 W/m2 CLR
01:04 -12.8 °C -24.6 °C 34635.4 hPa Calm     21% 0 mm WeatherDisplay:10.37 W/m2 CLR
01:09 -12.9 °C -24.3 °C 34635.4 hPa NNW 3.1 km/h 3.1 km/h 22% 0 mm WeatherDisplay:10.37 W/m2 CLR
01:14 -13.1 °C -24.5 °C 34635.4 hPa NW 3.1 km/h   22% 0 mm WeatherDisplay:10.37 W/m2 CLR
01:19 -13.2 °C -24.6 °C 34601.5 hPa Calm     22% 0 mm WeatherDisplay:10.37 W/m2 CLR
01:24 -13.3 °C -24.7 °C 34601.5 hPa Calm     22% 0 mm WeatherDisplay:10.37 W/m2 CLR
01:29 -13.3 °C -24.7 °C 34601.5 hPa Calm     22% 0 mm WeatherDisplay:10.37 W/m2 CLR
01:34 -13.4 °C -24.8 °C 34601.5 hPa Calm     22% 0 mm WeatherDisplay:10.37 W/m2 CLR
01:39 -13.4 °C -24.8 °C 34601.5 hPa Calm     22% 0 mm WeatherDisplay:10.37 W/m2 CLR
01:44 -13.4 °C -24.8 °C 34601.5 hPa Calm     22% 0 mm WeatherDisplay:10.37 W/m2 CLR
01:49 -13.4 °C -24.8 °C 34601.5 hPa Calm     22% 0 mm WeatherDisplay:10.37 W/m2 CLR
01:54 -13.6 °C -24 °C 34601.5 hPa Calm     25% 0 mm WeatherDisplay:10.37 W/m2 CLR
01:59 -13.7 °C -24.1 °C 34601.5 hPa Calm     25% 0 mm WeatherDisplay:10.37 W/m2 CLR
02:04 -13.7 °C -24.1 °C 34601.5 hPa WNW 5.1 km/h 4.2 km/h 25% 0 mm WeatherDisplay:10.37 W/m2 CLR
02:09 -13.6 °C -24.1 °C 34601.5 hPa WNW 6 km/h 3.7 km/h 25% 0 mm WeatherDisplay:10.37 W/m2 CLR
02:14 -13.6 °C -24 °C 34601.5 hPa WNW 6 km/h 4.2 km/h 25% 0 mm WeatherDisplay:10.37 W/m2 CLR
02:19 -13.4 °C -23.9 °C 34601.5 hPa WNW 3.1 km/h   25% 0 mm WeatherDisplay:10.37 W/m2 CLR
02:24 -13.4 °C -24.8 °C 34601.5 hPa NNW 3.1 km/h   22% 0 mm WeatherDisplay:10.37 W/m2 CLR
02:29 -13.4 °C -24.8 °C 34601.5 hPa WNW 6 km/h 3.7 km/h 22% 0 mm WeatherDisplay:10.37 W/m2 CLR
02:34 -13.4 °C -23.9 °C 34601.5 hPa NW 3.7 km/h 3.1 km/h 25% 0 mm WeatherDisplay:10.37 W/m2 CLR
02:39 -13.5 °C -23.9 °C 34601.5 hPa NW 3.1 km/h 2.3 km/h 25% 0 mm WeatherDisplay:10.37 W/m2 CLR
02:44 -13.5 °C -23.9 °C 34601.5 hPa WNW 6 km/h 4.2 km/h 25% 0 mm WeatherDisplay:10.37 W/m2 CLR
02:49 -13.6 °C -24 °C 34601.5 hPa NNW 6 km/h 5.6 km/h 25% 0 mm WeatherDisplay:10.37 W/m2 CLR
02:54 -13.5 °C -23.9 °C 34601.5 hPa NNW 11.9 km/h 6.3 km/h 25% 0 mm WeatherDisplay:10.37 W/m2 CLR
02:59 -13.5 °C -23.9 °C 34601.5 hPa West 9 km/h 6.8 km/h 25% 0 mm WeatherDisplay:10.37 W/m2 CLR
03:04 -13.4 °C -23.9 °C 34601.5 hPa West 9 km/h 6.3 km/h 25% 0 mm WeatherDisplay:10.37 W/m2 CLR
03:09 -13.2 °C -24 °C 34601.5 hPa West 9 km/h 6.8 km/h 24% 0 mm WeatherDisplay:10.37 W/m2 CLR
03:14 -13.1 °C -24.5 °C 34601.5 hPa WSW 9 km/h 7.6 km/h 22% 0 mm WeatherDisplay:10.37 W/m2 CLR
03:19 -13.1 °C -24.5 °C 34567.7 hPa WNW 6 km/h 4.2 km/h 22% 0 mm WeatherDisplay:10.37 W/m2 CLR
03:24 -13 °C -24.4 °C 34567.7 hPa Calm     22% 0 mm WeatherDisplay:10.37 W/m2 CLR
03:29 -13.1 °C -24.5 °C 34567.7 hPa NW 3.1 km/h   22% 0 mm WeatherDisplay:10.37 W/m2 CLR
03:34 -13.1 °C -24.5 °C 34567.7 hPa NE 3.1 km/h   22% 0 mm WeatherDisplay:10.37 W/m2 CLR
03:39 -13.2 °C -24.6 °C 34567.7 hPa Calm     22% 0 mm WeatherDisplay:10.37 W/m2 CLR
03:44 -13.3 °C -24.7 °C 34567.7 hPa Calm     22% 0 mm WeatherDisplay:10.37 W/m2 CLR
03:49 -13.4 °C -24.8 °C 34567.7 hPa West 6 km/h 5.6 km/h 22% 0 mm WeatherDisplay:10.37 W/m2 CLR
03:54 -13.5 °C -24.8 °C 34567.7 hPa NNW 3.1 km/h   22% 0 mm WeatherDisplay:10.37 W/m2 CLR
03:59 -13.6 °C -24.1 °C 34567.7 hPa WNW 3.1 km/h 2.3 km/h 25% 0 mm WeatherDisplay:10.37 W/m2 CLR
04:04 -13.7 °C -24.1 °C 34567.7 hPa NNW 3.1 km/h   25% 0 mm WeatherDisplay:10.37 W/m2 CLR
04:09 -13.8 °C -24.2 °C 34567.7 hPa NNW 3.1 km/h   25% 0 mm WeatherDisplay:10.37 W/m2 CLR
04:14 -13.9 °C -24.3 °C 34567.7 hPa NW 3.1 km/h   25% 0 mm WeatherDisplay:10.37 W/m2 CLR
04:19 -13.9 °C -24.3 °C 34567.7 hPa Calm     25% 0 mm WeatherDisplay:10.37 W/m2 CLR
04:24 -14 °C -24.4 °C 34567.7 hPa Calm     25% 0 mm WeatherDisplay:10.37 W/m2 CLR
04:29 -14 °C -24.4 °C 34567.7 hPa Calm     25% 0 mm WeatherDisplay:10.37 W/m2 CLR
04:34 -14 °C -24.4 °C 34567.7 hPa Calm     25% 0 mm WeatherDisplay:10.37 W/m2 CLR
04:39 -14.1 °C -24.5 °C 34567.7 hPa Calm     25% 0 mm WeatherDisplay:10.37 W/m2 CLR
04:44 -14.2 °C -23.8 °C 34567.7 hPa Calm     28% 0 mm WeatherDisplay:10.37 W/m2 CLR
04:49 -14.4 °C -23.9 °C 34567.7 hPa Calm     28% 0 mm WeatherDisplay:10.37 W/m2 CLR
04:54 -14.4 °C -23.9 °C 34567.7 hPa WNW 6 km/h 4.2 km/h 28% 0 mm WeatherDisplay:10.37 W/m2 CLR
04:59 -14.4 °C -24.7 °C 34567.7 hPa WNW 6.3 km/h 2.3 km/h 25% 0 mm WeatherDisplay:10.37 W/m2 CLR
05:04 -14.3 °C -24.6 °C 34567.7 hPa Calm     25% 0 mm WeatherDisplay:10.37 W/m2 CLR
05:09 -14.3 °C -23.8 °C 34567.7 hPa WNW 9 km/h 5.6 km/h 28% 0 mm WeatherDisplay:10.37 W/m2 CLR
05:14 -14.3 °C -24.7 °C 34567.7 hPa WNW 6 km/h 5.6 km/h 25% 0 mm WeatherDisplay:10.37 W/m2 CLR
05:19 -14.4 °C -24 °C 34567.7 hPa NW 6 km/h 3.7 km/h 28% 0 mm WeatherDisplay:10.37 W/m2 CLR
05:24 -14.4 °C -24 °C 34567.7 hPa NW 6 km/h 4.2 km/h 28% 0 mm WeatherDisplay:10.37 W/m2 CLR
05:29 -14.5 °C -24.1 °C 34567.7 hPa NNW 3.1 km/h   28% 0 mm WeatherDisplay:10.37 W/m2 CLR
05:34 -14.6 °C -24.1 °C 34567.7 hPa Calm     28% 0 mm WeatherDisplay:10.37 W/m2 CLR
05:39 -14.7 °C -24.2 °C 34567.7 hPa Calm     28% 0 mm WeatherDisplay:10.37 W/m2 CLR
05:44 -14.9 °C -24.4 °C 34567.7 hPa Calm     28% 0 mm WeatherDisplay:10.37 W/m2 CLR
05:49 -15 °C -24.5 °C 34567.7 hPa Calm     28% 0 mm WeatherDisplay:10.37 W/m2 CLR
05:54 -14.9 °C -24.4 °C 34567.7 hPa Calm     28% 0 mm WeatherDisplay:10.37 W/m2 CLR
05:59 -14.9 °C -24.4 °C 34567.7 hPa Calm     28% 0 mm WeatherDisplay:10.37 W/m2 CLR
06:04 -14.8 °C -24.3 °C 34567.7 hPa Calm     28% 0 mm WeatherDisplay:10.37 W/m2 CLR
06:09 -14.8 °C -24.3 °C 34567.7 hPa Calm     28% 0 mm WeatherDisplay:10.37 W/m2 CLR
06:14 -14.8 °C -24.3 °C 34567.7 hPa Calm     28% 0 mm WeatherDisplay:10.37 W/m2 CLR
06:19 -14.8 °C -24.3 °C 34567.7 hPa Calm     28% 0 mm WeatherDisplay:10.37 W/m2 CLR
06:24 -14.8 °C -24.3 °C 34567.7 hPa Calm     28% 0 mm WeatherDisplay:10.37 W/m2 CLR
06:29 -14.8 °C -24.3 °C 34567.7 hPa Calm     28% 0 mm WeatherDisplay:10.37 W/m2 CLR
06:34 -14.8 °C -24.1 °C 34567.7 hPa Calm     29% 0 mm WeatherDisplay:10.37 W/m2 CLR
06:39 -14.7 °C -24.2 °C 34567.7 hPa Calm     28% 0 mm WeatherDisplay:10.37 W/m2 CLR
06:44 -14.6 °C -23.8 °C 34567.7 hPa Calm     29% 0 mm WeatherDisplay:10.37 W/m2 CLR
06:49 -14.5 °C -24.1 °C 34567.7 hPa Calm     28% 0 mm WeatherDisplay:10.37 W/m2 CLR
06:54 -14.4 °C -23.9 °C 34567.7 hPa Calm     28% 0 mm WeatherDisplay:10.37 W/m2 CLR
06:59 -14.3 °C -23.9 °C 34567.7 hPa Calm     28% 0 mm WeatherDisplay:10.37 W/m2 CLR
07:04 -14.2 °C -23.8 °C 34601.5 hPa Calm     28% 0 mm WeatherDisplay:10.37 W/m2 CLR
07:09 -14.1 °C -23.7 °C 34601.5 hPa Calm     28% 0 mm WeatherDisplay:10.37 W/m2 CLR
07:14 -13.9 °C -23.5 °C 34601.5 hPa Calm     28% 0 mm WeatherDisplay:10.37 W/m2 CLR
07:19 -13.7 °C -23.4 °C 34567.7 hPa Calm     28% 0 mm WeatherDisplay:10.37 W/m2 CLR
07:24 -13.6 °C -23.2 °C 34567.7 hPa Calm     28% 0 mm WeatherDisplay:10.37 W/m2 CLR
07:29 -13.4 °C -23.1 °C 34567.7 hPa Calm     28% 0 mm WeatherDisplay:10.37 W/m2 CLR
07:34 -13.3 °C -23.2 °C 34567.7 hPa Calm     27% 0 mm WeatherDisplay:10.37 W/m2 CLR
07:39 -13.1 °C -22.8 °C 34567.7 hPa Calm     28% 0 mm WeatherDisplay:10.37 W/m2 CLR
07:44 -12.9 °C -22.6 °C 34567.7 hPa Calm     28% 0 mm WeatherDisplay:10.37 W/m2 CLR
07:49 -12.7 °C -22.5 °C 34567.7 hPa WNW 3.1 km/h 3.1 km/h 28% 0 mm WeatherDisplay:10.37 W/m2 CLR
07:54 -12.6 °C -22.7 °C 34567.7 hPa Calm     27% 0 mm WeatherDisplay:10.37 W/m2 CLR
07:59 -12.5 °C -22.6 °C 34567.7 hPa Calm     27% 0 mm WeatherDisplay:10.37 W/m2 CLR
08:04 -12.3 °C -22.4 °C 34567.7 hPa Calm     27% 0 mm WeatherDisplay:10.37 W/m2 CLR
08:09 -12.2 °C -22.3 °C 34567.7 hPa Calm     27% 0 mm WeatherDisplay:10.37 W/m2 CLR
08:14 -11.9 °C -22.1 °C 34567.7 hPa Calm     27% 0 mm WeatherDisplay:10.37 W/m2 CLR
08:19 -11.6 °C -21.8 °C 34567.7 hPa Calm     27% 0 mm WeatherDisplay:10.37 W/m2 CLR
08:24 -11.2 °C -21.7 °C 34567.7 hPa Calm   5.6 km/h 26% 0 mm WeatherDisplay:10.37 W/m2 CLR
08:29 -10.7 °C -22.1 °C 34567.7 hPa NNW 9 km/h 6.3 km/h 23% 0 mm WeatherDisplay:10.37 W/m2 CLR
08:34 -10.3 °C -22.8 °C 34533.8 hPa WNW 16.1 km/h 11.6 km/h 20% 0 mm WeatherDisplay:10.37 W/m2 CLR
08:39 -9.9 °C -22.9 °C 34533.8 hPa NW 17.9 km/h 9.3 km/h 19% 0 mm WeatherDisplay:10.37 W/m2 CLR
08:44 -9.6 °C -22.6 °C 34533.8 hPa West 12.2 km/h 11.6 km/h 19% 0 mm WeatherDisplay:10.37 W/m2 CLR
08:49 -9.4 °C -22.4 °C 34567.7 hPa WNW 15 km/h 7.6 km/h 19% 0 mm WeatherDisplay:10.37 W/m2 CLR
08:54 -9.2 °C -22.3 °C 34567.7 hPa WNW 15 km/h 7.6 km/h 19% 0 mm WeatherDisplay:10.37 W/m2 CLR
08:59 -9.1 °C -22.2 °C 34567.7 hPa NNW 9 km/h 9.3 km/h 19% 0 mm WeatherDisplay:10.37 W/m2 CLR
09:04 -9 °C -22.1 °C 34567.7 hPa NNW 15 km/h 8 km/h 19% 0 mm WeatherDisplay:10.37 W/m2 CLR
09:09 -8.8 °C -21.9 °C 34567.7 hPa NNW 9.8 km/h 4.2 km/h 19% 0 mm WeatherDisplay:10.37 W/m2 CLR
09:14 -8.7 °C -21.9 °C 34567.7 hPa WNW 11.9 km/h 7.6 km/h 19% 0 mm WeatherDisplay:10.37 W/m2 CLR
09:19 -8.7 °C -21.8 °C 34533.8 hPa NW 12.2 km/h 11.6 km/h 19% 0 mm WeatherDisplay:10.37 W/m2 CLR
09:24 -8.6 °C -21.8 °C 34533.8 hPa NW 11.9 km/h 6.8 km/h 19% 0 mm WeatherDisplay:10.37 W/m2 CLR
09:29 -8.5 °C -21.7 °C 34533.8 hPa WNW 15 km/h 9.8 km/h 19% 0 mm WeatherDisplay:10.37 W/m2 CLR
09:34 -8.4 °C -21.6 °C 34533.8 hPa WNW 15 km/h 11.1 km/h 19% 0 mm WeatherDisplay:10.37 W/m2 CLR
09:39 -8.4 °C -21.6 °C 34533.8 hPa WNW 15 km/h 9.3 km/h 19% 0 mm WeatherDisplay:10.37 W/m2 CLR
09:44 -8.3 °C -21.9 °C 34533.8 hPa West 6 km/h 5.1 km/h 18% 0 mm WeatherDisplay:10.37 W/m2 CLR
09:49 -8.2 °C -21.8 °C 34567.7 hPa NNW 15 km/h 8 km/h 18% 0 mm WeatherDisplay:10.37 W/m2 CLR
09:54 -8.1 °C -21.8 °C 34567.7 hPa WNW 11.9 km/h 6.3 km/h 18% 0 mm WeatherDisplay:10.37 W/m2 CLR
09:59 -8 °C -21.7 °C 34567.7 hPa WNW 12.2 km/h 6.3 km/h 18% 0 mm WeatherDisplay:10.37 W/m2 CLR
10:04 -7.9 °C -21.6 °C 34567.7 hPa NE 11.9 km/h 7.6 km/h 18% 0 mm WeatherDisplay:10.37 W/m2 CLR
10:09 -7.8 °C -21.6 °C 34567.7 hPa NW 9 km/h 5.6 km/h 18% 0 mm WeatherDisplay:10.37 W/m2 CLR
10:14 -7.8 °C -21.5 °C 34567.7 hPa NNW 11.9 km/h 6.3 km/h 18% 0 mm WeatherDisplay:10.37 W/m2 CLR
10:19 -7.8 °C -21.5 °C 34567.7 hPa West 11.9 km/h 5.6 km/h 18% 0 mm WeatherDisplay:10.37 W/m2 CLR
Hered Hungary
Compliments of Weather Underground - 2.25 mb